Location: Alafon
(8.4500°N, 4.2333°E)
Time: 17:43:36
(UTC+00:00)

Transit 2A - Pass Details

Date: 09 August 2021
Orbit: 595 x 964 km, 66.7° (Epoch: 18 September)

Event Time Altitude Azimuth Distance (km) Brightness Sun altitude
Rises 02:12:29 0° 184° (S) 2,870 - -46.9°
Reaches altitude 10° 02:14:54 10° 175° (S) 1,941 - -46.4°
Maximum altitude 02:18:50 35° 109° (ESE) 965 - -45.6°
Drops below altitude 10° 02:22:45 10° 43° (NE) 1,927 - -44.8°
Exits shadow 02:24:28 - 36° (NE) 2,579 9.4 -44.4°
Sets 02:25:08 0° 34° (NE) 2,847 9.6 -44.3°
